DW5256 Weather Reports


Display with metric or nautical units.
time (UTC)temp
F
wind
direction
speed
MPH
gust
MPH
rain 1hr
in
rain 24hr
in
rain mn
in
humidity
%
barometer
mb
20260510163534 65 283 0.0 3.0 0.00 0.00 0.00 73 1011.8
20260510162022 64 271 0.0 0.0 0.00 0.00 0.00 74 1011.8
20260510160525 63 273 0.0 0.0 0.00 0.00 0.00 75 1011.7
20260510155015 62 271 0.0 0.0 0.00 0.00 0.00 77 1011.6
20260510153524 61 253 0.0 0.0 0.00 0.00 0.00 79 1011.6
20260510152031 60 253 0.0 0.0 0.00 0.00 0.00 81 1011.6
20260510150523 59 254 0.0 2.0 0.00 0.00 0.00 82 1011.7
20260510145034 59 253 0.0 0.0 0.00 0.00 0.00 82 1011.6
20260510143523 59 251 0.0 0.0 0.00 0.00 0.00 83 1011.3
20260510142020 59 244 1.0 5.0 0.00 0.00 0.00 83 1011.2
20260510140530 59 238 0.0 0.0 0.00 0.00 0.00 83 1011.0
20260510135018 59 238 0.0 0.0 0.00 0.00 0.00 83 1010.9
20260510133528 59 238 0.0 0.0 0.00 0.00 0.00 84 1010.8
20260510132035 59 238 0.0 0.0 0.00 0.00 0.00 84 1010.7
20260510130528 59 238 0.0 0.0 0.00 0.00 0.00 84 1010.7
20260510125043 59 238 0.0 0.0 0.00 0.00 0.00 84 1010.6
20260510123524 59 238 0.0 0.0 0.00 0.00 0.00 84 1010.7
20260510122019 59 238 0.0 0.0 0.00 0.00 0.00 84 1010.6
20260510120517 59 238 0.0 0.0 0.00 0.00 0.00 84 1010.6
20260510115034 59 238 0.0 0.0 0.00 0.00 0.00 84 1010.5
20260510113526 59 238 0.0 0.0 0.00 0.00 0.00 84 1010.6
20260510112019 59 227 0.0 0.0 0.00 0.00 0.00 85 1010.6
20260510110517 59 227 0.0 0.0 0.00 0.00 0.00 85 1010.6
20260510105051 59 227 0.0 0.0 0.00 0.00 0.00 85 1010.7
20260510103533 59 227 0.0 0.0 0.00 0.00 0.00 85 1010.7
20260510102051 59 227 0.0 0.0 0.00 0.00 0.00 85 1010.8
20260510100524 59 227 0.0 0.0 0.00 0.00 0.00 85 1010.8
20260510095022 59 227 0.0 0.0 0.00 0.00 0.00 85 1010.9
20260510093525 59 227 0.0 0.0 0.00 0.00 0.00 85 1010.9
20260510092035 59 227 0.0 0.0 0.00 0.00 0.00 85 1010.9
20260510090532 59 227 0.0 0.0 0.00 0.00 0.00 84 1010.9
20260510085024 59 227 0.0 0.0 0.00 0.00 0.00 84 1011.1
20260510083521 59 227 0.0 0.0 0.00 0.00 0.00 84 1011.2
20260510082017 59 227 0.0 0.0 0.00 0.00 0.00 85 1011.2
20260510080533 59 227 0.0 0.0 0.00 0.00 0.00 84 1011.4
20260510075031 59 227 0.0 0.0 0.00 0.00 0.00 84 1011.3
20260510073548 59 227 0.0 0.0 0.00 0.00 0.00 84 1011.4
20260510072023 59 227 0.0 0.0 0.00 0.00 0.00 84 1011.7
20260510070555 59 227 0.0 0.0 0.00 0.00 0.00 84 1011.6
20260510065020 59 227 0.0 0.0 0.00 0.00 0.00 84 1011.6
20260510063551 59 229 0.0 0.0 0.00 0.00 0.00 83 1011.8
20260510062029 59 229 0.0 0.0 0.00 0.00 0.00 83 1011.7
20260510060527 59 229 0.0 0.0 0.00 0.00 0.00 83 1011.8
20260510055022 59 229 0.0 0.0 0.00 0.00 0.00 83 1011.7
20260510053521 60 229 0.0 0.0 0.00 0.00 0.00 83 1011.7
20260510052015 59 229 0.0 0.0 0.00 0.00 0.00 83 1011.8
20260510050535 59 229 0.0 0.0 0.00 0.00 0.00 83 1011.8
20260510045029 59 229 0.0 0.0 0.00 0.00 0.00 83 1011.8
20260510043526 59 229 0.0 0.0 0.00 0.00 0.00 83 1011.8
20260510042023 59 229 0.0 0.0 0.00 0.00 0.00 82 1011.7
20260510040523 60 229 0.0 0.0 0.00 0.00 0.00 82 1011.5
20260510035019 60 229 0.0 0.0 0.00 0.00 0.00 81 1011.4
20260510033517 60 229 0.0 0.0 0.00 0.00 0.00 80 1011.1
20260510032015 61 229 0.0 0.0 0.00 0.00 0.00 80 1011.0
20260510030551 62 229 0.0 0.0 0.00 0.00 0.00 79 1010.8
20260510025049 62 229 0.0 0.0 0.00 0.00 0.00 77 1010.7
20260510023527 63 229 0.0 0.0 0.00 0.00 0.00 76 1010.5
20260510022025 64 229 0.0 0.0 0.00 0.00 0.00 74 1010.3
20260510020529 65 227 0.0 0.0 0.00 0.00 0.00 73 1010.5
20260510015027 66 227 0.0 7.0 0.00 0.00 0.00 72 1010.4
20260510013529 67 232 0.0 7.0 0.00 0.00 0.00 70 1010.4
20260510012048 68 198 1.0 9.0 0.00 0.00 0.00 69 1010.4
20260510010556 68 246 2.0 10.0 0.00 0.00 0.00 69 1010.4
20260510005031 70 250 2.0 8.0 0.00 0.00 0.00 67 1010.4
20260510003528 71 271 5.0 11.0 0.00 0.00 0.00 64 1010.2
20260510002027 72 236 3.0 9.0 0.00 0.00 0.00 63 1010.1
20260510000525 73 227 0.0 0.0 0.00 0.00 0.00 62 1010.3
20260509235021 72 253 0.0 8.0 0.00 0.00 0.00 64 1010.2
20260509233522 72 245 1.0 10.0 0.00 0.00 0.00 63 1010.2
20260509232018 72 222 1.0 8.0 0.00 0.00 0.00 64 1010.2
20260509230517 73 223 1.0 7.0 0.00 0.00 0.00 63 1010.4
20260509225014 73 229 1.0 9.0 0.00 0.00 0.00 63 1010.5
20260509223539 73 246 1.0 13.0 0.00 0.00 0.00 63 1010.5
20260509222036 73 257 1.0 10.0 0.00 0.00 0.00 64 1010.7
20260509220534 73 167 1.0 10.0 0.00 0.00 0.00 63 1010.8
20260509215029 73 267 2.0 10.0 0.00 0.00 0.00 62 1010.8
20260509213527 74 201 1.0 10.0 0.00 0.00 0.00 62 1010.8
20260509212020 73 228 2.0 12.0 0.00 0.00 0.00 63 1011.0
20260509210518 74 233 2.0 9.0 0.00 0.00 0.00 62 1011.1
20260509205036 73 242 2.0 10.0 0.00 0.00 0.00 63 1011.3
20260509203534 73 221 2.0 9.0 0.00 0.00 0.00 63 1011.2
20260509202028 74 223 1.0 11.0 0.00 0.00 0.00 62 1011.2
20260509200528 74 274 5.0 12.0 0.00 0.00 0.00 61 1011.4
20260509195043 73 263 6.0 12.0 0.00 0.00 0.00 62 1011.2
20260509193535 76 208 1.0 8.0 0.00 0.00 0.00 60 1011.3
20260509192038 75 265 5.0 10.0 0.00 0.00 0.00 61 1011.5
20260509190542 74 274 4.0 12.0 0.00 0.00 0.00 62 1011.6
20260509185031 74 256 3.0 10.0 0.00 0.00 0.00 62 1011.6
20260509183531 74 252 1.0 9.0 0.00 0.00 0.00 63 1011.6
20260509182022 73 268 4.0 9.0 0.00 0.00 0.00 64 1011.7
20260509180534 73 265 2.0 8.0 0.00 0.00 0.00 65 1011.7
20260509175024 72 249 0.0 7.0 0.00 0.00 0.00 66 1011.8
20260509173543 71 276 0.0 8.0 0.00 0.00 0.00 67 1011.8
20260509172028 70 273 0.0 0.0 0.00 0.00 0.00 70 1011.7
20260509170520 68 277 1.0 7.0 0.00 0.00 0.00 73 1011.8
20260509165028 67 279 2.0 7.0 0.00 0.00 0.00 74 1011.7